EW4462 Weather Reports


Display with metric or nautical units.
time (UTC)temp
F
wind
direction
speed
MPH
gust
MPH
rain 1hr
in
rain 24hr
in
rain mn
in
humidity
%
barometer
mb
20260906192712 76 232 0.0 0.0 0.00 0.06 0.06 85 1013.5
20260906191652 75 256 0.0 0.0 0.00 0.06 0.06 84 1013.7
20260906190629 75 247 0.0 0.0 0.00 0.06 0.06 83 1013.8
20260906185648 75 257 0.0 0.0 0.00 0.06 0.06 82 1013.8
20260906184647 75 274 0.0 0.0 0.00 0.04 0.05 79 1013.8
20260906182434 75 229 0.0 0.0 0.00 0.04 0.05 77 1014.1
20260906180257 75 226 0.0 0.0 0.00 0.04 0.05 77 1014.3
20260906175249 76 243 0.0 1.0 0.00 0.04 0.05 75 1014.4
20260906174233 76 252 0.0 0.0 0.00 0.04 0.05 75 1014.1
20260906173246 76 252 0.0 0.0 0.00 0.04 0.05 72 1014.1
20260906172220 76 245 0.0 0.0 0.00 0.04 0.05 71 1014.0
20260906171227 77 263 0.0 0.0 0.00 0.04 0.05 71 1014.1
20260906170224 77 198 0.0 0.0 0.00 0.04 0.05 73 1013.9
20260906165224 76 246 0.0 0.0 0.00 0.04 0.05 76 1013.9
20260906164241 76 265 0.0 0.0 0.00 0.04 0.05 80 1013.7
20260906163215 76 271 0.0 0.0 0.00 0.04 0.05 81 1013.6
20260906162228 75 277 0.0 0.0 0.00 0.04 0.05 81 1013.6
20260906161206 75 279 0.0 0.0 0.00 0.04 0.05 81 1013.6
20260906160150 74 282 0.0 0.0 0.00 0.04 0.05 81 1013.4
20260906155134 73 284 0.0 0.0 0.00 0.04 0.05 80 1013.5
20260906154137 73 290 0.0 0.0 0.00 0.04 0.05 84 1013.5
20260906152042 72 266 0.0 0.0 0.00 0.04 0.05 83 1013.6
20260906151020 71 226 0.0 0.0 0.00 0.04 0.05 82 1013.5
20260906145958 71 226 0.0 0.0 0.00 0.04 0.05 83 1013.5
20260906143841 71 226 0.0 0.0 0.00 0.04 0.05 83 1013.3
20260906142809 70 226 0.0 2.0 0.00 0.04 0.05 82 1013.3
20260906135528 71 254 0.0 0.0 0.00 0.04 0.05 87 1012.7
20260906134529 71 254 0.0 0.0 0.00 0.04 0.05 88 1012.6
20260906133532 71 254 0.0 0.0 0.00 0.04 0.05 87 1012.3
20260906131406 70 254 0.0 0.0 0.00 0.04 0.05 87 1012.2
20260906130413 70 254 0.0 0.0 0.00 0.04 0.05 86 1012.1
20260906125400 70 254 0.0 0.0 0.00 0.04 0.05 86 1011.9
20260906124331 70 254 0.0 0.0 0.00 0.04 0.05 85 1012.0
20260906123325 70 254 0.0 0.0 0.00 0.04 0.05 86 1012.0
20260906122345 69 254 0.0 0.0 0.00 0.04 0.05 85 1012.0
20260906121355 69 254 0.0 0.0 0.00 0.04 0.05 86 1012.0
20260906120400 69 254 0.0 0.0 0.00 0.04 0.05 84 1012.2
20260906115358 69 254 0.0 0.0 0.00 0.04 0.05 83 1012.2
20260906114356 69 254 0.0 0.0 0.00 0.04 0.05 82 1012.2
20260906112253 69 254 0.0 0.0 0.00 0.04 0.05 83 1012.1
20260906111236 69 244 0.0 0.0 0.00 0.04 0.05 86 1012.5
20260906110211 69 244 0.0 0.0 0.00 0.04 0.04 84 1012.3
20260906105151 69 244 0.0 0.0 0.00 0.04 0.04 86 1012.4
20260906104157 70 161 0.0 0.0 0.00 0.04 0.04 87 1012.5
20260906103222 70 161 0.0 0.0 0.00 0.04 0.04 87 1012.5
20260906101106 70 161 0.0 0.0 0.00 0.04 0.04 88 1012.3
20260906100034 71 161 0.0 0.0 0.00 0.04 0.04 86 1012.4
20260906095012 71 161 0.0 0.0 0.00 0.04 0.04 87 1012.3
20260906094011 71 161 0.0 0.0 0.00 0.04 0.04 86 1012.4
20260906092951 72 161 0.0 0.0 0.00 0.04 0.04 85 1012.6
20260906091954 72 161 0.0 0.0 0.00 0.04 0.04 86 1012.6
20260906090937 73 161 0.0 0.0 0.00 0.04 0.04 86 1012.5
20260906085937 73 161 0.0 0.0 0.06 0.04 0.04 86 1012.4
20260906083732 74 159 0.0 0.0 0.04 0.01 0.02 86 1013.0
20260906082742 74 159 0.0 0.0 0.00 0.01 0.01 85 1013.2
20260906081803 74 162 0.0 0.0 0.00 0.00 0.00 83 1013.2
20260906080802 74 162 0.0 0.0 0.00 0.00 0.00 82 1013.1
20260906074600 74 162 0.0 0.0 0.00 0.00 0.00 79 1013.0
20260906073608 74 162 0.0 0.0 0.00 0.00 0.00 79 1013.0
20260906072554 74 162 0.0 0.0 0.00 0.00 0.00 79 1013.0
20260906071533 74 162 0.0 0.0 0.00 0.00 0.00 79 1013.1
20260906065347 75 162 0.0 0.0 0.00 0.00 0.00 77 1013.0
20260906064342 75 162 0.0 0.0 0.00 0.00 0.00 76 1013.1
20260906063333 75 162 0.0 0.0 0.00 0.00 0.00 76 1013.0
20260906062318 75 162 0.0 0.0 0.00 0.00 0.00 76 1013.1
20260906061256 75 162 0.0 0.0 0.00 0.00 0.00 75 1013.1
20260906055124 75 162 0.0 0.0 0.00 0.00 0.00 74 1012.9
20260906054138 76 162 0.0 0.0 0.00 0.00 0.00 73 1013.1
20260906052020 76 162 0.0 0.0 0.00 0.00 0.00 71 1013.1
20260906051023 76 162 0.0 0.0 0.00 0.00 0.00 70 1013.0
20260906045949 76 162 0.0 0.0 0.00 0.00 0.00 70 1013.0
20260906044936 76 162 0.0 0.0 0.00 0.00 0.00 70 1013.1
20260906043908 76 162 0.0 0.0 0.00 0.00 0.00 68 1013.1
20260906042924 76 162 0.0 0.0 0.00 0.00 0.00 67 1012.9
20260906041852 76 162 0.0 0.0 0.00 0.00 0.00 64 1013.0
20260906040833 76 162 0.0 0.0 0.00 0.00 0.00 58 1012.8
20260906034630 76 162 0.0 0.0 0.00 0.00 0.00 59 1013.0
20260906033652 76 162 0.0 0.0 0.00 0.00 0.00 59 1012.9
20260906031440 76 162 0.0 0.0 0.00 0.00 0.00 60 1012.9
20260906030429 76 161 0.0 0.0 0.00 0.00 0.00 62 1012.8
20260906025422 77 160 0.0 0.0 0.00 0.00 0.00 64 1012.8
20260906023225 77 160 0.0 0.0 0.00 0.00 0.00 53 1012.6
20260906022238 77 160 0.0 0.0 0.00 0.00 0.00 51 1012.7
20260906021205 77 160 0.0 0.0 0.00 0.00 0.00 48 1012.6
20260906020155 78 160 0.0 0.0 0.00 0.00 0.00 58 1012.7
20260906015146 79 160 0.0 0.0 0.00 0.00 0.00 59 1012.7
20260906014148 80 160 0.0 0.0 0.00 0.00 0.00 56 1012.8
20260906013128 81 160 0.0 0.0 0.00 0.00 0.00 50 1012.8
20260906012124 82 160 0.0 0.0 0.00 0.00 0.00 49 1012.9
20260906011052 83 161 0.0 0.0 0.00 0.00 0.00 44 1012.8
20260906010033 84 162 0.0 0.0 0.00 0.00 0.00 39 1012.8
20260906005009 85 163 0.0 0.0 0.00 0.00 0.00 39 1012.7
20260906004011 86 173 0.0 0.0 0.00 0.00 0.00 40 1012.6
20260906002951 86 147 0.0 0.0 0.00 0.00 0.00 38 1012.7
20260906001936 86 153 0.0 0.0 0.00 0.00 0.00 41 1012.6
20260906000911 87 157 0.0 0.0 0.00 0.00 0.00 42 1012.7
20260905235855 87 101 0.0 0.0 0.00 0.00 0.00 45 1012.6
20260905234904 87 163 0.0 0.0 0.00 0.00 0.00 46 1012.6
20260905233905 87 117 0.0 0.0 0.00 0.00 0.00 43 1012.7
20260905232910 87 82 0.0 0.0 0.00 0.00 0.00 41 1012.7
20260905231910 87 116 0.0 0.0 0.00 0.00 0.00 42 1012.5
20260905230915 88 159 0.0 0.0 0.00 0.00 0.00 39 1012.5
20260905225935 88 145 0.0 0.0 0.00 0.00 0.00 40 1012.6
20260905224924 88 134 0.0 0.0 0.00 0.00 0.00 37 1012.7
20260905223855 88 219 0.0 0.0 0.00 0.00 0.00 36 1012.7
20260905222920 88 109 0.0 0.0 0.00 0.00 0.00 36 1012.8
20260905221914 88 88 0.0 0.0 0.00 0.00 0.00 38 1012.9
20260905220911 87 96 0.0 0.0 0.00 0.00 0.00 40 1013.0
20260905215910 87 111 0.0 0.0 0.00 0.00 0.00 43 1013.1
20260905214857 87 83 0.0 0.0 0.00 0.00 0.00 44 1013.1
20260905213901 87 162 0.0 0.0 0.00 0.00 0.00 46 1013.3
20260905212847 87 123 0.0 0.0 0.00 0.00 0.00 49 1013.4
20260905211845 87 101 0.0 6.0 0.00 0.00 0.00 52 1013.5
20260905210834 87 109 0.0 0.0 0.00 0.00 0.00 52 1013.5
20260905205817 86 126 0.0 0.0 0.00 0.00 0.00 54 1013.4
20260905204811 85 109 0.0 0.0 0.00 0.00 0.00 56 1013.5
20260905203746 85 91 0.0 0.0 0.00 0.00 0.00 55 1013.7
20260905202808 84 168 0.0 0.0 0.00 0.00 0.00 56 1013.6
20260905201755 84 164 0.0 0.0 0.00 0.00 0.00 57 1013.7
20260905200808 83 123 0.0 0.0 0.00 0.00 0.00 56 1013.7
20260905195753 83 119 0.0 0.0 0.00 0.00 0.00 57 1013.9
20260905193634 82 102 0.0 0.0 0.00 0.00 0.00 60 1014.0